Location: Carri�res
(48.9069°N, 2.1792°E)
Time: 12:55:21
(UTC+00:00)

COSMO-SKYMED 1 - Pass Details

Date: 17 January 2021
Orbit: 621 x 623 km, 97.9° (Epoch: 26 February)

Event Time Altitude Azimuth Distance (km) Brightness Sun altitude
Exits shadow 17:01:44 - 26° (NNE) 2,849 5.5 -6.1°
Reaches altitude 10° 17:04:13 10° 42° (NE) 2,004 4.6 -6.5°
Maximum altitude 17:07:33 21° 92° (E) 1,403 3.9 -7.0°
Drops below altitude 10° 17:10:51 10° 142° (SE) 1,990 5.0 -7.5°
Sets 17:13:29 0° 158° (SSE) 2,890 6.0 -7.9°
